Weather History for KVKY - February, 2014

Change the Weather History Date:

Sunday, February 16, 2014

  Actual Average Record
Temperature  
Mean Temperature 62 °F -  
Max Temperature 66 °F - - ()
Min Temperature 57 °F - - ()
Degree Days  
Heating Degree Days 4    
Growing Degree Days 12 (Base 50)    
Moisture  
Dew Point 52 °F    
Average Humidity 72    
Maximum Humidity 82    
Minimum Humidity 55    
Precipitation  
Precipitation 0.00 in - - ()
Sea Level Pressure  
Sea Level Pressure 30.17 in    
Wind  
Wind Speed 7 mph (ESE)    
Max Wind Speed 13 mph    
Max Gust Speed -    
Visibility 10 miles    
Events      
T = Trace of Precipitation, MM = Missing Value Source: NWS Daily Summary

Daily Weather History Graph

Daily Weather History Graph

Search for Another Location

Airport or City:

Trip Planner

Search our weather history database for the weather conditions in past years. The results will help you decide how hot, cold, wet, or windy it might be!

Date:

Astronomy

Feb. 16, 2014 Rise Set
Actual Time 6:31 AM CST 5:44 PM CST
Civil Twilight 6:07 AM CST 6:08 PM CST
Nautical Twilight 5:39 AM CST 6:36 PM CST
Astronomical Twilight 5:12 AM CST 7:03 PM CST
Moon 7:28 PM CST (2/16) 7:12 AM CST (2/16)
Length of Visible Light 12h 00m
Length of Day
11h 12m
Full, 97% of the Moon is Illuminated
Feb 16
Full
Feb 22
Last Quarter
Mar 1
New
Mar 8
First Quarter
Mar 16
Full

Hourly Weather History & Observations

Time (CST) Temp. Dew Point Humidity Pressure Visibility Wind Dir Wind Speed Gust Speed Precip Events Conditions
12:15 AM 59.0 °F 42.8 °F 55% 30.13 in 10.0 mi South 8.1 mph - N/A   Clear
12:35 AM 59.0 °F 44.6 °F 59% 30.13 in 10.0 mi SSW 12.7 mph - N/A   Clear
12:55 AM 59.0 °F 44.6 °F 59% 30.14 in 10.0 mi SSW 11.5 mph - N/A   Clear
1:15 AM 59.0 °F 44.6 °F 59% 30.14 in 10.0 mi SSW 9.2 mph - N/A   Clear
1:35 AM 59.0 °F 46.4 °F 63% 30.14 in 10.0 mi SW 10.4 mph - N/A   Clear
1:55 AM 59.0 °F 44.6 °F 59% 30.14 in 10.0 mi SW 10.4 mph - N/A   Clear
2:15 AM 59.0 °F 46.4 °F 63% 30.14 in 10.0 mi SW 10.4 mph - N/A   Clear
2:35 AM 59.0 °F 46.4 °F 63% 30.14 in 10.0 mi SW 9.2 mph - N/A   Clear
2:55 AM 59.0 °F 46.4 °F 63% 30.13 in 10.0 mi SW 9.2 mph - N/A   Clear
3:15 AM 60.8 °F 46.4 °F 59% 30.13 in 10.0 mi SW 10.4 mph - N/A   Clear
3:35 AM 60.8 °F 48.2 °F 63% 30.13 in 10.0 mi SW 6.9 mph - N/A   Clear
3:55 AM 60.8 °F 48.2 °F 63% 30.13 in 10.0 mi WSW 6.9 mph - N/A   Clear
4:15 AM 60.8 °F 48.2 °F 63% 30.13 in 10.0 mi WSW 6.9 mph - N/A   Clear
4:35 AM 60.8 °F 50.0 °F 68% 30.14 in 10.0 mi WSW 6.9 mph - N/A   Clear
4:55 AM 60.8 °F 50.0 °F 68% 30.15 in 10.0 mi West 5.8 mph - N/A   Clear
5:15 AM 59.0 °F 51.8 °F 77% 30.15 in 10.0 mi NNW 8.1 mph - N/A   Clear
5:35 AM 59.0 °F 51.8 °F 77% 30.16 in 10.0 mi North 8.1 mph - N/A   Clear
5:55 AM 57.2 °F 51.8 °F 82% 30.17 in 10.0 mi North 9.2 mph - N/A   Clear
6:15 AM 57.2 °F 51.8 °F 82% 30.17 in 10.0 mi North 8.1 mph - N/A   Clear
6:35 AM 57.2 °F 51.8 °F 82% 30.18 in 10.0 mi NNE 10.4 mph - N/A   Clear
6:55 AM 57.2 °F 51.8 °F 82% 30.18 in 10.0 mi NNE 10.4 mph - N/A   Clear
7:15 AM 57.2 °F 51.8 °F 82% 30.19 in 10.0 mi NNE 8.1 mph - N/A   Clear
7:35 AM 57.2 °F 51.8 °F 82% 30.19 in 10.0 mi NE 6.9 mph - N/A   Clear
7:55 AM 59.0 °F 51.8 °F 77% 30.19 in 10.0 mi NE 4.6 mph - N/A   Clear
8:15 AM 59.0 °F 51.8 °F 77% 30.20 in 10.0 mi NE 5.8 mph - N/A   Clear
8:35 AM 59.0 °F 51.8 °F 77% 30.21 in 10.0 mi ENE 4.6 mph - N/A   Clear
8:55 AM 59.0 °F 51.8 °F 77% 30.21 in 10.0 mi ENE 5.8 mph - N/A   Clear
9:15 AM 59.0 °F 51.8 °F 77% 30.21 in 10.0 mi ENE 5.8 mph - N/A   Clear
9:35 AM 60.8 °F 51.8 °F 72% 30.21 in 10.0 mi ENE 4.6 mph - N/A   Clear
9:55 AM 60.8 °F 51.8 °F 72% 30.21 in 10.0 mi East 4.6 mph - N/A   Clear
10:15 AM 60.8 °F 51.8 °F 72% 30.21 in 10.0 mi Calm Calm - N/A   Clear
10:35 AM 60.8 °F 51.8 °F 72% 30.21 in 10.0 mi NE 4.6 mph - N/A   Clear
10:55 AM 60.8 °F 51.8 °F 72% 30.21 in 10.0 mi NE 5.8 mph - N/A   Clear
11:15 AM 62.6 °F 51.8 °F 68% 30.20 in 10.0 mi ENE 6.9 mph - N/A   Clear
11:35 AM 62.6 °F 51.8 °F 68% 30.20 in 10.0 mi East 6.9 mph - N/A   Clear
11:55 AM 62.6 °F 50.0 °F 63% 30.19 in 10.0 mi East 6.9 mph - N/A   Clear
12:15 PM 62.6 °F 51.8 °F 68% 30.19 in 10.0 mi East 5.8 mph - N/A   Clear
12:35 PM 62.6 °F 51.8 °F 68% 30.18 in 10.0 mi East 5.8 mph - N/A   Clear
12:55 PM 62.6 °F 51.8 °F 68% 30.17 in 10.0 mi East 5.8 mph - N/A   Clear
1:15 PM 64.4 °F 53.6 °F 68% 30.16 in 10.0 mi East 5.8 mph - N/A   Clear
1:35 PM 64.4 °F 53.6 °F 68% 30.16 in 10.0 mi East 5.8 mph - N/A   Clear
1:55 PM 62.6 °F 53.6 °F 72% 30.15 in 10.0 mi East 4.6 mph - N/A   Clear
2:15 PM 62.6 °F 53.6 °F 72% 30.16 in 10.0 mi East 4.6 mph - N/A   Clear
2:35 PM 62.6 °F 53.6 °F 72% 30.15 in 10.0 mi East 4.6 mph - N/A   Clear
2:55 PM 62.6 °F 53.6 °F 72% 30.14 in 10.0 mi ESE 5.8 mph - N/A   Clear
3:15 PM 64.4 °F 55.4 °F 73% 30.14 in 10.0 mi SE 5.8 mph - N/A   Clear
3:35 PM 64.4 °F 55.4 °F 73% 30.15 in 10.0 mi SE 6.9 mph - N/A   Clear
3:55 PM 62.6 °F 55.4 °F 77% 30.15 in 10.0 mi ESE 8.1 mph - N/A   Clear
4:15 PM 62.6 °F 55.4 °F 77% 30.15 in 10.0 mi ESE 6.9 mph - N/A   Clear
4:35 PM 62.6 °F 53.6 °F 72% 30.15 in 10.0 mi SE 8.1 mph - N/A   Clear
4:55 PM 64.4 °F 55.4 °F 73% 30.15 in 10.0 mi SE 8.1 mph - N/A   Clear
5:15 PM 64.4 °F 55.4 °F 73% 30.16 in 10.0 mi SE 5.8 mph - N/A   Clear
5:35 PM 64.4 °F 55.4 °F 73% 30.16 in 10.0 mi Variable 4.6 mph - N/A   Clear
5:55 PM 64.4 °F 55.4 °F 73% 30.16 in 10.0 mi Calm Calm - N/A   Clear
6:15 PM 62.6 °F 55.4 °F 77% 30.16 in 10.0 mi Calm Calm - N/A   Clear
6:35 PM 62.6 °F 55.4 °F 77% 30.16 in 10.0 mi Calm Calm - N/A   Clear
6:55 PM 62.6 °F 55.4 °F 77% 30.17 in 10.0 mi Calm Calm - N/A   Clear
7:15 PM 64.4 °F 55.4 °F 73% 30.17 in 10.0 mi Calm Calm - N/A   Clear
7:35 PM 64.4 °F 55.4 °F 73% 30.18 in 10.0 mi SE 4.6 mph - N/A   Clear
7:55 PM 66.2 °F 57.2 °F 73% 30.18 in 10.0 mi SE 4.6 mph - N/A   Clear
8:15 PM 64.4 °F 57.2 °F 77% 30.18 in 10.0 mi Calm Calm - N/A   Clear
8:35 PM 64.4 °F 57.2 °F 77% 30.17 in 10.0 mi Calm Calm - N/A   Clear
8:55 PM 64.4 °F 55.4 °F 73% 30.17 in 10.0 mi Calm Calm - N/A   Clear
9:15 PM 62.6 °F 55.4 °F 77% 30.18 in 10.0 mi Calm Calm - N/A   Clear
9:35 PM 62.6 °F 57.2 °F 82% 30.17 in 10.0 mi Calm Calm - N/A   Clear
9:55 PM 62.6 °F 55.4 °F 77% 30.17 in 10.0 mi Calm Calm - N/A   Clear
10:15 PM 62.6 °F 55.4 °F 77% 30.17 in 10.0 mi Calm Calm - N/A   Clear
10:35 PM 62.6 °F 55.4 °F 77% 30.17 in 10.0 mi Calm Calm - N/A   Partly Cloudy
10:55 PM 62.6 °F 55.4 °F 77% 30.16 in 10.0 mi Variable 3.5 mph - N/A   Clear
11:15 PM 62.6 °F 57.2 °F 82% 30.16 in 10.0 mi South 6.9 mph - N/A   Clear
11:35 PM 62.6 °F 57.2 °F 82% 30.15 in 10.0 mi South 9.2 mph - N/A   Clear
11:55 PM 62.6 °F 57.2 °F 82% 30.15 in 10.0 mi South 10.4 mph - N/A   Clear